Terug naar catalogus

STARLINK-1337

ActiefCommunicatieVLEO
NORAD 45582·PAYLOAD·🇺🇸 United States

Gelanceerd Apr 22, 2020 vanaf Cape Canaveral Space Force Station

Loading…

Volgende Passages (komende 24 uur)

TLE

VersSource: CelesTrak SupGP

Epoch: Sep 14, 2026, 12:44 UTC

1 45582C 20025BD  26257.53104167  .00198960  00000+0  44989-3 0  2578
2 45582  53.0345 200.2963 0005627  87.8537 273.1869 15.96729820    12

Volg STARLINK-1337 in realtime met AllMySat

Download on the App Store